Weather History for Kansas City, MO

Change the Weather History Date:

Monday, December 24, 2012

  Actual Average Record
Temperature  
Mean Temperature 22 °F -  
Max Temperature 26 °F 38 °F 50 °F (2011)
Min Temperature 19 °F 21 °F 3 °F (2000)
Degree Days  
Heating Degree Days 42    
Moisture  
Dew Point 15 °F    
Average Humidity 73    
Maximum Humidity 86    
Minimum Humidity 60    
Precipitation  
Precipitation 0.00 in - - ()
Sea Level Pressure  
Sea Level Pressure 30.09 in    
Wind  
Wind Speed 9 mph (NNW)    
Max Wind Speed 13 mph    
Max Gust Speed 16 mph    
Visibility 7 miles    
Events      
Averages and records for this station are not official NWS values.
T = Trace of Precipitation, MM = Missing Value Source: NWS Daily Summary

Daily Weather History Graph

Daily Weather History Graph

Search for Another Location

Airport:

Trip Planner

Search our weather history database for the weather conditions in past years. The results will help you decide how hot, cold, wet, or windy it might be!

Date:

Astronomy

Dec. 24, 2012 Rise Set
Actual Time 7:35 AM CST 5:01 PM CST
Civil Twilight 7:05 AM CST 5:31 PM CST
Nautical Twilight 6:31 AM CST 6:04 PM CST
Astronomical Twilight 5:59 AM CST 6:37 PM CST
Moon 2:28 PM CST (12/24) 4:15 AM CST (12/24)
Length of Visible Light 10h 25m
Length of Day
9h 25m
Waxing Gibbous, 88% of the Moon is Illuminated
Dec 24
Waxing Gibbous
Dec 28
Full
Jan 4
Last Quarter
Jan 11
New
Jan 18
First Quarter

Hourly Weather History & Observations

Time (CST) Temp. Windchill Dew Point Humidity Pressure Visibility Wind Dir Wind Speed Gust Speed Precip Events Conditions
12:54 AM 26.1 °F 16.2 °F 19.9 °F 78% 29.99 in 5.0 mi NW 10.4 mph - N/A   Haze
1:38 AM 24.8 °F 14.0 °F 19.4 °F 80% 29.98 in 5.0 mi NW 11.5 mph - N/A   Haze
1:54 AM 25.0 °F 16.3 °F 19.0 °F 78% 30.00 in 5.0 mi NNW 8.1 mph - N/A   Haze
2:06 AM 24.8 °F 14.6 °F 19.4 °F 80% 29.98 in 5.0 mi NNW 10.4 mph 16.1 mph N/A   Haze
2:28 AM 24.8 °F 16.1 °F 17.6 °F 74% 29.98 in 5.0 mi North 8.1 mph - N/A   Haze
2:52 AM 23.0 °F 13.9 °F 17.6 °F 80% 29.98 in 5.0 mi NNW 8.1 mph - N/A   Haze
2:54 AM 23.0 °F 14.7 °F 18.0 °F 81% 30.01 in 5.0 mi NNW 6.9 mph - N/A   Haze
3:54 AM 21.9 °F 13.4 °F 16.0 °F 78% 30.00 in 5.0 mi NNW 6.9 mph - N/A   Haze
4:54 AM 19.9 °F 12.1 °F 15.1 °F 81% 30.03 in 5.0 mi NW 5.8 mph - N/A   Haze
5:18 AM 19.4 °F 8.6 °F 15.8 °F 86% 30.02 in 5.0 mi WNW 9.2 mph - N/A   Haze
5:54 AM 19.9 °F 10.1 °F 15.1 °F 81% 30.06 in 4.0 mi NNW 8.1 mph - N/A   Haze
6:54 AM 19.9 °F 7.9 °F 15.1 °F 81% 30.09 in 4.0 mi NNW 11.5 mph - N/A   Haze
7:54 AM 21.0 °F 9.3 °F 16.0 °F 81% 30.09 in 4.0 mi NW 11.5 mph - N/A   Haze
8:09 AM 21.2 °F 10.1 °F 15.8 °F 80% 30.06 in 2.5 mi NNW 10.4 mph - N/A   Haze
8:33 AM 21.2 °F 10.9 °F 15.8 °F 80% 30.06 in 3.0 mi NNW 9.2 mph - N/A   Haze
8:54 AM 21.2 °F 10.9 °F 15.8 °F 80% 30.07 in 3.0 mi North 9.2 mph - N/A   Haze
9:54 AM 21.0 °F 8.6 °F 14.0 °F 74% 30.13 in 4.0 mi WNW 12.7 mph - N/A   Haze
10:54 AM 21.0 °F 10.6 °F 12.9 °F 71% 30.14 in 5.0 mi NNW 9.2 mph - N/A   Haze
11:08 AM 21.2 °F 10.9 °F 12.2 °F 68% 30.11 in 8.0 mi NW 9.2 mph - N/A   Scattered Clouds
11:54 AM 24.1 °F 15.2 °F 12.0 °F 60% 30.10 in 10.0 mi North 8.1 mph - N/A   Clear
12:54 PM 25.0 °F 13.6 °F 12.9 °F 60% 30.10 in 10.0 mi North 12.7 mph - N/A   Clear
1:54 PM 23.0 °F 12.4 °F 12.0 °F 63% 30.10 in 10.0 mi North 10.4 mph - N/A   Clear
2:54 PM 24.1 °F 14.4 °F 12.0 °F 60% 30.12 in 10.0 mi NNW 9.2 mph - N/A   Partly Cloudy
3:54 PM 21.9 °F 11.7 °F 10.9 °F 63% 30.14 in 10.0 mi North 9.2 mph - N/A   Clear
4:54 PM 21.9 °F 12.5 °F 10.9 °F 63% 30.16 in 10.0 mi North 8.1 mph - N/A   Clear
5:54 PM 21.0 °F 11.4 °F 10.9 °F 65% 30.16 in 10.0 mi North 8.1 mph - N/A   Clear
6:54 PM 19.9 °F 13.4 °F 12.0 °F 71% 30.16 in 10.0 mi North 4.6 mph - N/A   Clear
7:54 PM 21.0 °F 11.4 °F 12.0 °F 68% 30.16 in 10.0 mi NE 8.1 mph - N/A   Clear
8:54 PM 21.0 °F 9.9 °F 12.0 °F 68% 30.18 in 10.0 mi NE 10.4 mph - N/A   Clear
9:54 PM 21.0 °F 9.3 °F 12.0 °F 68% 30.19 in 10.0 mi NE 11.5 mph - N/A   Clear
10:54 PM 21.0 °F 8.6 °F 12.0 °F 68% 30.19 in 10.0 mi NE 12.7 mph - N/A   Clear
11:54 PM 19.9 °F 9.3 °F 12.0 °F 71% 30.21 in 10.0 mi NE 9.2 mph - N/A   Clear